DELTA 1 R/B(2), 1318

Orbit data source: Space-Track

DELTA 1 R/B(2), 1318 is space debris in HEO originally from a launch on Tue, 06 Apr 1965 UTC launched from the Air Force Eastern Test Range (AFETR). Debris objects in space refer to the collection of defunct objects orbiting the Earth. Examples of debris include non-operational satellites, rocket bodies, and fragments generated from explosions, collisions, or faulty payload assembly.

Loading next visibility...
Identifier
1318, 1965-028B
Orbit
HEO
Country
Flag of USUS
Related business
Manufacturer
ABL
Mission
Spacecraft
Bus & Motor
ALTAIR, Unknown motor
Mass
33 kg wet, 33 kg dry
Launch date (UTC)
1965-04-06 (61 years ago)
Launch vehicle
Unknown
Launch site
Air Force Eastern Test Range (AFETR)
Object type
Payload
Rocket body
Debris
Shape & HBR
Unknown
Radar Cross Section
Medium (>0.1 m² and <1 m²)

Expand to show TLE details & history
Last TLE update: 13 hours ago

TLE from 13 hours ago
0 DELTA 1 R/B(2)
1 01318U 65028B   25293.20396307 -.00000187  00000-0  00000-0 0  9992
2 01318  18.0532 331.5567 6940351  29.2661  65.0700  2.11819303102243
Epoch: 2025-10-20T04:53Z
TLE epoch observation values (Epoch: 2025-10-20T04:53:42.409Z)
Latitude
2.31954°
Longitude
42.03984°
Altitude
23,422.668 km
Speed
3.345 km/s
True Right ascension
09h 37m 30s
True Declination
2° 18' 58"
Sunlit
Object was in daylight at epoch
Visualization orbit readout
Latitude
Unknown
Longitude
Unknown
Altitude
Unknown
Speed
Unknown
Apparent Right ascension
Unknown
Apparent Declination
Unknown
Sunlit
N/A
Visualization observer readout
Local Sidereal Time
13:10:58
Azimuth
Unknown
Elevation
Unknown
Doppler factor
Unknown
Orbital elements
Apogee altitude
37,014.334 km
Perigee altitude
1,459.111 km
Semi-major axis
25,614.859 km
Eccentricity
0.69404
Inclination
18.0532°
RAAN
331.5567°
Arg. of periapsis
29.2661°
True anomaly
143.08088°
Mean anomaly
65.07°
Eccentric anomaly
103.70337°
Mean motion
0.52943 °/min
Orbital period
679.98 mins
BSTAR
0
Loading maneuver chart data...
Computing Atmospheric mass density...
Loading historical data...
Loading historical data...
Loading historical data...
Loading historical data...
Loading historical data...
Loading historical data...
Loading historical data...
Other satellites on launch #28 in the year 1965 (1965-04-06 UTC)

Documentation

Showing up to 5 results
|